This is the latest recevied weather packets stored in our database for station/object KE8ZLU. If no packets are shown the sender has not sent any weather packets the latest 10 day(s).
| Time | Temp. | Humidity | Pressure | Rain* | Wind** | Luminosity | Snow |
|---|---|---|---|---|---|---|---|
| 1777469955 | 8.33° C | 94% | 1014.1 hPa | 0 mm | - | 93 W/m² | - |
| 1777469651 | 8.33° C | 94% | 1014.2 hPa | 0 mm | - | 76 W/m² | - |
| 1777469347 | 8.33° C | 95% | 1014.4 hPa | 0 mm | - | 64 W/m² | - |
| 1777469042 | 8.33° C | 96% | 1014.4 hPa | 0 mm | - | 57 W/m² | - |
| 1777468738 | 8.33° C | 96% | 1014.1 hPa | 0 mm | - | 53 W/m² | - |
| 1777468434 | 8.33° C | 96% | 1014.5 hPa | 0 mm | - | 54 W/m² | - |
| 1777468130 | 8.33° C | 96% | 1014.5 hPa | 0 mm | - | 49 W/m² | - |
| 1777467827 | 8.33° C | 96% | 1014.6 hPa | 0 mm | - | 34 W/m² | - |
| 1777467522 | 8.33° C | 96% | 1014.4 hPa | 0 mm | - | 38 W/m² | - |
| 1777467217 | 8.33° C | 96% | 1014.4 hPa | 0 mm | - | 52 W/m² | - |
| 1777466915 | 8.33° C | 96% | 1014.6 hPa | 0 mm | - | 34 W/m² | - |
| 1777466612 | 8.33° C | 95% | 1014.5 hPa | 0 mm | - | 40 W/m² | - |
| 1777466309 | 8.33° C | 95% | 1014.2 hPa | 0 mm | - | 68 W/m² | - |
| 1777466005 | 8.33° C | 95% | 1014.4 hPa | 0 mm | - | 44 W/m² | - |
| 1777465701 | 8.33° C | 95% | 1014.4 hPa | 0 mm | - | 47 W/m² | - |
| 1777465398 | 8.33° C | 95% | 1014.4 hPa | 0 mm | - | 43 W/m² | - |
| 1777465096 | 8.33° C | 95% | 1014.3 hPa | 0 mm | - | 38 W/m² | - |
| 1777464792 | 7.78° C | 95% | 1014.1 hPa | 0 mm | - | 56 W/m² | - |
| 1777464488 | 7.78° C | 95% | 1014.1 hPa | 0 mm | - | 36 W/m² | - |
| 1777464184 | 7.78° C | 95% | 1014.1 hPa | 0 mm | - | 26 W/m² | - |
| 1777463883 | 7.78° C | 95% | 1014.3 hPa | 0 mm | - | 16 W/m² | - |
| 1777463579 | 7.78° C | 95% | 1014.4 hPa | 0 mm | - | 27 W/m² | - |
| 1777463274 | 7.78° C | 95% | 1014.5 hPa | 0 mm | - | 33 W/m² | - |
| 1777462971 | 7.78° C | 95% | 1014.7 hPa | 0 mm | - | 30 W/m² | - |
| 1777462667 | 7.78° C | 95% | 1014.7 hPa | 0 mm | - | 18 W/m² | - |
* Rain latest hour (hover to see other rain measurements)
** Current wind speed in m/s (hover to see current wind gust speed)